sat.trackr.live / text

‹ back to catalog

STARLINK-34502

NORAD 64680 · 2025-139S

PAYLOAD ACTIVE UNKNOWN

§ Identity

Operator
Country
US
Launch date
2025-06-28
Launch site
AFETR
Launch vehicle
Mass (kg)
RCS (m²)

Purposes: comms

External: N2YO · Heavens-Above · Gunter

§ Orbital elements

Epoch: 2026-05-25T03:13:48.925056Z

Period
93.85 min
Inclination
53.1587°
Eccentricity
0.0001547
Mean motion
15.34418952 rev/d
Perigee alt
461.6 km
Apogee alt
463.7 km
Semi-major
6,840.8 km
B*
7.6220e-4
RAAN
130.8611°
Arg perigee
66.5454°
Mean anomaly
293.5711°
Rev number
5,200

§ Raw data

STARLINK-345021 64680U 25139S   26145.13459404  .00025479  00000+0  76220-3 0  99982 64680  53.1587 130.8611 0001547  66.5454 293.5711 15.34418952 52009

JSON: /api/v1/satellites/64680 · /tle

For live sub-satellite position, see the globe view (requires WebGL).

§ Visibility from observer

Set your observer location to see the next 7 days of passes ≥ 10°. The values pass through the URL so the page stays shareable.

No JS? Fill the form by hand. The geolocation button needs JavaScript.